User: anonymous   Login
Location: Unspecified
(0.0000°N, 0.0000°E)
Time: 05:18:02
(UTC+00:00)
Language:

Orbcomm A3 (FM07) - Orbit

View from above orbital plane
View from above orbital plane
View from above satellite
View from above satellite

Ground track
Ground track

The orbit data is extracted from the following two-line orbital elements,

1 25119U 97084H   18344.87583636  .00000041  00000-0  59221-4 0  9990
2 25119  45.0145 177.8141 0004407 118.5609 241.5683 14.38817917 98323
Epoch (UTC): 10 December 2018 21:01:12
Eccentricity: 0.0004407
inclination: 45.0145°
perigee height: 759 km
apogee height: 765 km
right ascension of ascending node: 177.8141°
argument of perigee: 118.5609°
revolutions per day: 14.38817917
mean anomaly at epoch: 241.5683°
orbit number at epoch: 9832

The dashed part of the orbit path shows where the satellite is in the earth's shadow,  

DLR